Starlink 32694

operational
NORAD ID: 62494 Int'l Des: 2025-003 Owner: SPXS Country: US Constellation: starlink
LEOCIRCULAR

关于 Starlink 32694

正在加载描述...

实时位置

正在加载3D地球...

即将过境

高度历史

Altitude vs Time

uPlot chart will show altitude changes over time

两行轨道根数

1 62494U 25003H 25347.50319686 .00040981 00000-0 14884-2 0 9993
2 62494 42.9976 55.4328 0001058 255.5948 104.4786 15.27626838 53492
Epoch: Dec 13, 2025 • Age: 24 hours

当前状态

高度 486.5 km
速度 7.63 km/s
星下点 42.89°N, 116.25°W
发射日期 Jan 6, 2025
运行时间 0.9 years
类型 internet

技术详情

分类 Payload
质量 730.00 kg
干质量 700.00 kg
总质量 730.00 kg
长度 0.30 m
直径 4.10 m
跨度 29.00 m
形状 Box + pan
制造商 SPXS
平台类型 Starlink V2M
阶段状态 In Orbit
所有者/国家 SPXS/US

大型星座

Loading constellations...